Home > Weather > Cupertino > Past weeks

Flag for USA Past Weather in Cupertino, California, USA — Yesterday and Last 2 Weeks

Now
58 °F

Clear.


Feels Like: 58 °F
Forecast: 56 / 82 °F
Wind: No wind

Location: Moffett Field

Current Time: Jun 29, 2016 at 4:05:51 AM

Latest Report: Jun 29, 2016 at 2:56 AM


Visibility: 10 mi

Pressure: 29.95 "Hg

Humidity: 81%

Dew Point: 52 °F

Location of CupertinoLocation

Past Weather in Cupertino — Graph

°F

Cupertino Temperature Yesterday

Maximum temperature yesterday: 78 °F (at 1:56 PM)
Minimum temperature yesterday: 59 °F (at 6:56 AM)
Average temperature yesterday: 66 °F

High & Low Weather Summary for the Past Weeks

 TemperatureHumidityPressure
High87 °F (Jun 19, 3:56 PM)90% (Jun 24, 6:56 AM)30.21 "Hg (Jun 24, 6:56 AM)
Low54 °F (Jun 15, 2:56 AM)23% (Jun 19, 1:56 PM)29.91 "Hg (Jun 25, 5:56 PM)
Average67 °F59%30.04 "Hg
* Reported Jun 14 11:56 AM — Jun 29 2:56 AM, Cupertino, Weather by CustomWeather, © 2016

Note: Actual official high and low records may vary slightly from our data, if they occured in-between our weather recording intervals... More about our weather records

Advertising

Cupertino Weather History for the Previous 24 Hours

Scroll right to see more
 ConditionsComfort  
Time TempWeatherWind HumidityBarometerVisibility
2:56 AM
Wed, Jun 29
58 °FClear.No wind81%29.95 "Hg10 mi
1:56 AM60 °FClear.No wind78%29.95 "Hg10 mi
12:56 AM61 °FClear.No wind78%29.96 "Hg10 mi
11:56 PM
Tue, Jun 28
61 °FClear.3 mph75%29.97 "Hg10 mi
10:56 PM61 °FClear.5 mph75%29.97 "Hg10 mi
9:56 PM61 °FClear.8 mph78%29.97 "Hg10 mi
8:56 PM63 °FSunny.7 mph73%29.97 "Hg10 mi
7:56 PM65 °FSunny.10 mph68%29.96 "Hg10 mi
6:56 PM68 °FSunny.14 mph63%29.95 "Hg10 mi
5:56 PM70 °FSunny.14 mph61%29.95 "Hg10 mi
4:56 PM73 °FSunny.13 mph55%29.96 "Hg10 mi
3:56 PM75 °FSunny.12 mph48%29.96 "Hg10 mi
2:56 PM77 °FSunny.12 mph45%29.98 "Hg10 mi
1:56 PM78 °FSunny.13 mph46%29.98 "Hg10 mi
12:56 PM76 °FSunny.10 mph50%30.00 "Hg10 mi
11:56 AM74 °FSunny.8 mph53%30.01 "Hg10 mi
10:56 AM70 °FSunny.7 mph59%30.01 "Hg10 mi
9:56 AM66 °FSunny.7 mph65%30.02 "Hg10 mi
8:56 AM64 °FSunny.7 mph70%30.02 "Hg10 mi
7:56 AM63 °FSunny.8 mph75%30.01 "Hg10 mi
6:56 AM59 °FSunny.6 mph78%30.00 "Hg10 mi
5:56 AM60 °FClear.3 mph80%30.00 "Hg9 mi
4:56 AM60 °FClear.3 mph80%29.98 "Hg10 mi
Weather by CustomWeather, © 2016

See weather overviewHow to use our weather pages